Wheaton NDB, MN

11:02 AM CST on December 16, 2017 (GMT -0600)
Wheaton Municipal

Weather History for KETH - June, 2013

Change the Weather History Date:

Thursday, June 20, 2013

  Actual Average Record
Temperature  
Mean Temperature 73 °F -  
Max Temperature 84 °F 79 °F 99 °F (1988)
Min Temperature 62 °F 54 °F 36 °F (1969)
Cooling Degree Days 8    
Growing Degree Days 23 (Base 50)    
Moisture  
Dew Point 66 °F    
Average Humidity 77    
Maximum Humidity 100    
Minimum Humidity 58    
Precipitation  
Precipitation 1.29 in - - ()
Sea Level Pressure  
Sea Level Pressure 29.86 in    
Wind  
Wind Speed 12 mph (ESE)    
Max Wind Speed 30 mph    
Max Gust Speed 67 mph    
Visibility 10 miles    
Events Rain , Thunderstorm    
Averages and records for this station are not official NWS values.
T = Trace of Precipitation, MM = Missing Value Source: NWS Daily Summary

Daily Weather History Graph

Daily Weather History Graph

Search for Another Location

Airport or City:

Trip Planner

Search our weather history database for the weather conditions in past years. The results will help you decide how hot, cold, wet, or windy it might be!

Date:

Astronomy

Jun. 20, 2013 Rise Set
Actual Time 5:36 AM CDT 9:19 PM CDT
Civil Twilight 4:57 AM CDT 9:57 PM CDT
Nautical Twilight 4:06 AM CDT 10:49 PM CDT
Astronomical Twilight 2:55 AM CDT 12:00 AM CDT
Moon 6:17 PM CDT (6/20) 3:10 AM CDT (6/20)
Length of Visible Light 17h 00m
Length of Day
15h 43m
Waxing Gibbous, 89% of the Moon is Illuminated
Jun 20
Waxing Gibbous
Jun 23
Full
Jun 29
Last Quarter
Jul 8
New
Jul 15
First Quarter

Hourly Weather History & Observations

Time (CDT) Temp. Heat Index Dew Point Humidity Pressure Visibility Wind Dir Wind Speed Gust Speed Precip Events Conditions
12:15 AM 75.2 °F - 60.8 °F 61% 29.87 in 10.0 mi SE 13.8 mph - N/A   Clear
12:35 AM 75.2 °F - 60.8 °F 61% 29.88 in 10.0 mi South 13.8 mph - N/A   Clear
12:55 AM 73.4 °F - 60.8 °F 65% 29.89 in 10.0 mi South 11.5 mph - N/A   Clear
1:15 AM 73.4 °F - 62.6 °F 69% 29.88 in 10.0 mi SSE 10.4 mph - N/A   Clear
1:35 AM 73.4 °F - 62.6 °F 69% 29.88 in 10.0 mi South 9.2 mph - N/A   Scattered Clouds
1:55 AM 73.4 °F - 64.4 °F 73% 29.88 in 10.0 mi South 4.6 mph - N/A Thunderstorm Thunderstorm
2:15 AM 73.4 °F - 64.4 °F 73% 29.89 in 10.0 mi South 15.0 mph 21.9 mph N/A Rain , Thunderstorm Light Thunderstorms and Rain
2:35 AM 71.6 °F - 64.4 °F 78% 29.90 in 10.0 mi SSE 10.4 mph 16.1 mph 0.02 in Rain , Thunderstorm Light Thunderstorms and Rain
2:56 AM 68.0 °F - 60.8 °F 78% 29.91 in 7.0 mi SE 18.4 mph 21.9 mph N/A Rain , Thunderstorm Thunderstorms and Rain
3:15 AM 68.0 °F - 57.2 °F 68% 29.89 in 10.0 mi NE 10.4 mph 23.0 mph 0.12 in Rain , Thunderstorm Light Thunderstorms and Rain
3:35 AM 69.8 °F - 59.0 °F 68% 29.88 in 10.0 mi ENE 9.2 mph 16.1 mph 0.14 in Rain , Thunderstorm Light Thunderstorms and Rain
3:55 AM 68.0 °F - 62.6 °F 83% 29.89 in 10.0 mi East 4.6 mph - 0.16 in Rain , Thunderstorm Rain
4:15 AM 66.2 °F - 60.8 °F 83% 29.90 in 10.0 mi NNW 17.3 mph 23.0 mph N/A Rain , Thunderstorm Light Thunderstorms and Rain
4:35 AM 64.4 °F - 60.8 °F 88% 29.91 in 10.0 mi NNW 17.3 mph 27.6 mph 0.05 in Rain , Thunderstorm Heavy Thunderstorms and Rain
4:55 AM 62.6 °F - 60.8 °F 94% 29.90 in 10.0 mi NNE 15.0 mph 18.4 mph 0.19 in Rain , Thunderstorm Heavy Thunderstorms and Rain
5:15 AM 64.4 °F - 60.8 °F 88% 29.90 in 10.0 mi NE 12.7 mph - 0.01 in Rain Light Rain
5:35 AM 64.4 °F - 62.6 °F 94% 29.92 in 5.0 mi NNE 5.8 mph - 0.08 in Rain , Thunderstorm Heavy Thunderstorms and Rain
5:55 AM 64.4 °F - 62.6 °F 94% 29.91 in 5.0 mi NE 6.9 mph - 0.22 in Rain , Thunderstorm Heavy Thunderstorms and Rain
6:15 AM 64.4 °F - 62.6 °F 94% 29.92 in 10.0 mi NE 8.1 mph - 0.03 in Rain , Thunderstorm Rain
6:35 AM 64.4 °F - 62.6 °F 94% 29.94 in 7.0 mi North 8.1 mph - 0.09 in Rain , Thunderstorm Thunderstorms and Rain
6:55 AM 64.4 °F - 62.6 °F 94% 29.93 in 10.0 mi NNE 10.4 mph 16.1 mph 0.15 in Rain , Thunderstorm Thunderstorms and Rain
7:15 AM 62.6 °F - 60.8 °F 94% 29.93 in 5.0 mi NE 11.5 mph - 0.14 in Rain , Thunderstorm Heavy Thunderstorms and Rain
7:35 AM 62.6 °F - 62.6 °F 100% 29.98 in 4.0 mi Calm Calm - 0.27 in Rain , Thunderstorm Thunderstorms and Rain
7:55 AM 64.4 °F - 62.6 °F 94% 29.96 in 10.0 mi ESE 9.2 mph 20.7 mph 0.42 in Rain , Thunderstorm Thunderstorms and Rain
8:15 AM 64.4 °F - 62.6 °F 94% 29.95 in 10.0 mi ESE 11.5 mph - 0.04 in Rain , Thunderstorm Rain
8:35 AM 64.4 °F - 62.6 °F 94% 29.96 in 10.0 mi SE 10.4 mph - 0.07 in Rain , Thunderstorm Rain
8:55 AM 64.4 °F - 62.6 °F 94% 29.94 in 10.0 mi ESE 9.2 mph - 0.10 in Rain Rain
9:14 AM 66.2 °F - 62.6 °F 88% 29.94 in 10.0 mi South 10.4 mph - 0.02 in Rain , Thunderstorm Rain
9:35 AM 66.2 °F - 60.8 °F 83% 29.86 in 10.0 mi ESE 13.8 mph - 0.03 in Rain , Thunderstorm Light Thunderstorms and Rain
9:55 AM 68.0 °F - 60.8 °F 78% 29.82 in 10.0 mi SE 24.2 mph 35.7 mph 0.03 in Rain Light Rain
10:15 AM 66.2 °F - 60.8 °F 83% 29.77 in 10.0 mi SSE 27.6 mph 48.3 mph N/A Thunderstorm Scattered Clouds
10:34 AM 66.2 °F - 60.8 °F 83% 29.79 in 10.0 mi SE 28.8 mph 34.5 mph N/A   Clear
10:54 AM 69.8 °F - 62.6 °F 78% 29.83 in 10.0 mi SSE 17.3 mph 31.1 mph N/A   Clear
11:14 AM 71.6 °F - 64.4 °F 78% 29.86 in 10.0 mi SSE 18.4 mph 27.6 mph N/A   Clear
11:35 AM 73.4 °F - 66.2 °F 78% 29.87 in 10.0 mi SSE 13.8 mph 24.2 mph N/A   Clear
11:55 AM 73.4 °F - 66.2 °F 78% 29.86 in 10.0 mi SE 23.0 mph 27.6 mph N/A   Clear
12:15 PM 75.2 °F - 66.2 °F 73% 29.88 in 10.0 mi SSE 18.4 mph 29.9 mph N/A   Clear
12:34 PM 77.0 °F - 68.0 °F 74% 29.89 in 10.0 mi SE 17.3 mph 23.0 mph N/A   Clear
12:54 PM 77.0 °F - 69.8 °F 78% 29.90 in 10.0 mi SE 18.4 mph - N/A   Clear
1:14 PM 78.8 °F - 69.8 °F 74% 29.89 in 10.0 mi SE 16.1 mph 19.6 mph N/A   Clear
1:34 PM 78.8 °F - 71.6 °F 78% 29.89 in 10.0 mi SE 16.1 mph - N/A   Clear
1:54 PM 80.6 °F 84.6 °F 71.6 °F 74% 29.89 in 10.0 mi SE 17.3 mph 21.9 mph N/A   Clear
2:15 PM 80.6 °F 84.6 °F 71.6 °F 74% 29.87 in 10.0 mi SE 15.0 mph - N/A   Clear
2:34 PM 82.4 °F 87.2 °F 71.6 °F 70% 29.87 in 10.0 mi ESE 16.1 mph 21.9 mph N/A   Clear
2:55 PM 82.4 °F 86.3 °F 69.8 °F 66% 29.86 in 10.0 mi SE 15.0 mph - N/A   Clear
3:15 PM 84.2 °F 88.4 °F 69.8 °F 62% 29.86 in 10.0 mi SE 16.1 mph 23.0 mph N/A   Clear
3:35 PM 84.2 °F 87.3 °F 68.0 °F 58% 29.86 in 10.0 mi SSE 15.0 mph 20.7 mph N/A   Clear
3:55 PM 84.2 °F 88.4 °F 69.8 °F 62% 29.85 in 10.0 mi SE 17.3 mph - N/A   Clear
4:15 PM 84.2 °F 88.4 °F 69.8 °F 62% 29.85 in 10.0 mi SE 16.1 mph - N/A   Clear
4:35 PM 84.2 °F 88.4 °F 69.8 °F 62% 29.85 in 10.0 mi SE 10.4 mph - N/A   Scattered Clouds
4:55 PM 84.2 °F 87.3 °F 68.0 °F 58% 29.85 in 10.0 mi SSE 11.5 mph 16.1 mph N/A   Scattered Clouds
5:14 PM 84.2 °F 88.4 °F 69.8 °F 62% 29.84 in 10.0 mi SE 8.1 mph - N/A   Scattered Clouds
5:35 PM 84.2 °F 88.4 °F 69.8 °F 62% 29.83 in 10.0 mi SE 8.1 mph - N/A   Scattered Clouds
5:55 PM 84.2 °F 89.6 °F 71.6 °F 66% 29.83 in 10.0 mi ESE 8.1 mph - N/A   Scattered Clouds
6:15 PM 84.2 °F 88.4 °F 69.8 °F 62% 29.82 in 10.0 mi ESE 8.1 mph - N/A   Scattered Clouds
6:35 PM 82.4 °F 87.2 °F 71.6 °F 70% 29.80 in 10.0 mi ESE 9.2 mph - N/A   Scattered Clouds
6:55 PM 82.4 °F 87.2 °F 71.6 °F 70% 29.79 in 10.0 mi ESE 10.4 mph - N/A   Mostly Cloudy
7:14 PM 82.4 °F 87.2 °F 71.6 °F 70% 29.79 in 10.0 mi ESE 9.2 mph - N/A   Mostly Cloudy
7:35 PM 82.4 °F 87.2 °F 71.6 °F 70% 29.80 in 10.0 mi East 9.2 mph - N/A   Mostly Cloudy
7:55 PM 80.6 °F 84.6 °F 71.6 °F 74% 29.80 in 10.0 mi East 5.8 mph - N/A   Mostly Cloudy
8:15 PM 78.8 °F - 71.6 °F 78% 29.80 in 10.0 mi East 8.1 mph - N/A   Mostly Cloudy
8:35 PM 78.8 °F - 71.6 °F 78% 29.80 in 10.0 mi ESE 6.9 mph - N/A   Scattered Clouds
8:54 PM 78.8 °F - 71.6 °F 78% 29.80 in 10.0 mi ESE 4.6 mph - N/A   Scattered Clouds
9:15 PM 77.0 °F - 71.6 °F 83% 29.80 in 10.0 mi ESE 4.6 mph - N/A Thunderstorm Scattered Clouds
9:35 PM 75.2 °F - 69.8 °F 83% 29.79 in 10.0 mi East 4.6 mph - N/A Thunderstorm Scattered Clouds
9:55 PM 77.0 °F - 69.8 °F 78% 29.77 in 10.0 mi ENE 8.1 mph - N/A Thunderstorm Mostly Cloudy
10:14 PM 75.2 °F - 69.8 °F 83% 29.78 in 10.0 mi ENE 11.5 mph 18.4 mph N/A Thunderstorm Thunderstorm
10:34 PM 75.2 °F - 69.8 °F 83% 29.78 in 10.0 mi East 6.9 mph 23.0 mph N/A Rain , Thunderstorm Light Thunderstorms and Rain
10:55 PM 73.4 °F - 66.2 °F 78% 29.78 in 10.0 mi ENE 11.5 mph - N/A Thunderstorm Overcast
11:14 PM 71.6 °F - 68.0 °F 88% 29.73 in 10.0 mi East 17.3 mph - N/A Rain , Thunderstorm Light Thunderstorms and Rain
11:35 PM 71.6 °F - 66.2 °F 83% 29.78 in 10.0 mi NE 8.1 mph 15.0 mph N/A Thunderstorm Thunderstorm
11:55 PM 68.0 °F - 64.4 °F 88% 29.80 in 5.0 mi North 29.9 mph 66.7 mph N/A Rain , Thunderstorm Thunderstorms and Rain